Location: Zagreb
(45.8000°N, 16.0000°E)
Time: 06:05:39
(UTC+02:00)

Altair - Pass Details

Date: 17 July 2024
Orbit: 1502 x 1682 km, 47.2° (Epoch: 17 April)

Event Time Altitude Azimuth Distance (km) Brightness Sun altitude
Rises 18:32:57 0° 207° (SSW) 4,730 10.3 19.9°
Reaches altitude 10° 18:36:21 10° 199° (SSW) 3,724 9.7 19.3°
Maximum altitude 18:44:35 36° 137° (SE) 2,229 8.2 17.9°
Drops below altitude 10° 18:52:39 10° 75° (ENE) 3,659 9.0 16.5°
Sets 18:55:56 0° 68° (ENE) 4,639 9.5 16.0°
